• In Hungary
  • List of Countries
  • For 7 days
  • Water Temperature
  • Satellite Maps
  • Weather Map
  • News
  • Weather Widgets
  • user-avatar
    Login

    Hourly Weather Newton Aycliffe

    Today, 22 November, Wednesday

    Time Temperature Precipitation Wind Pressure Humidity
    00:00 +11°C° 0 mm 9 mps 737 mmHg 84%
    01:00 +10°C° 0 mm 8 mps 736 mmHg 85%
    02:00 +10°C° 0 mm 8 mps 736 mmHg 85%
    03:00 +10°C° 0 mm 7 mps 736 mmHg 85%
    04:00 +9°C° 0.1 mm 6 mps 735 mmHg 86%
    05:00 +9°C° 0.1 mm 5 mps 735 mmHg 87%
    06:00 +10°C° 0.1 mm 4 mps 734 mmHg 88%
    07:00 +10°C° 0.3 mm 5 mps 733 mmHg 87%
    08:00 +10°C° 0.3 mm 6 mps 733 mmHg 86%
    09:00 +11°C° 0.3 mm 6 mps 732 mmHg 86%
    10:00 +12°C° 1.1 mm 8 mps 731 mmHg 84%
    11:00 +12°C° 1.1 mm 9 mps 730 mmHg 82%
    12:00 +13°C° 1.1 mm 11 mps 729 mmHg 80%
    13:00 +13°C° 0.7 mm 11 mps 729 mmHg 81%
    14:00 +13°C° 0.7 mm 11 mps 728 mmHg 81%
    15:00 +13°C° 0.7 mm 10 mps 727 mmHg 81%
    16:00 +13°C° 1.1 mm 10 mps 727 mmHg 81%
    17:00 +13°C° 1.1 mm 10 mps 726 mmHg 82%
    18:00 +12°C° 1.1 mm 10 mps 726 mmHg 82%
    19:00 +12°C° 0.7 mm 10 mps 725 mmHg 83%
    20:00 +12°C° 0.7 mm 9 mps 725 mmHg 85%
    21:00 +12°C° 0.7 mm 8 mps 724 mmHg 86%
    22:00 +12°C° 0.7 mm 8 mps 724 mmHg 86%
    23:00 +11°C° 0.7 mm 8 mps 724 mmHg 85%

    Tomorrow, 23 November, Thursday

    Time Temperature Precipitation Wind Pressure Humidity
    00:00 +11°C° 0.7 mm 7 mps 724 mmHg 84%
    01:00 +10°C° 0.3 mm 7 mps 724 mmHg 85%
    02:00 +10°C° 0.3 mm 6 mps 724 mmHg 86%
    03:00 +9°C° 0.3 mm 5 mps 724 mmHg 86%
    04:00 +8°C° 0.3 mm 7 mps 725 mmHg 83%
    05:00 +6°C° 0.3 mm 8 mps 725 mmHg 79%
    06:00 +5°C° 0.3 mm 10 mps 725 mmHg 76%
    07:00 +5°C° 0 mm 10 mps 726 mmHg 74%
    08:00 +4°C° 0 mm 11 mps 727 mmHg 73%
    09:00 +4°C° 0 mm 11 mps 728 mmHg 71%
    10:00 +4°C° 0.1 mm 12 mps 729 mmHg 70%
    11:00 +4°C° 0.1 mm 12 mps 730 mmHg 69%
    12:00 +5°C° 0.1 mm 12 mps 732 mmHg 68%
    13:00 +4°C° 0 mm 12 mps 733 mmHg 67%
    14:00 +4°C° 0 mm 11 mps 735 mmHg 67%
    15:00 +5°C° 0 mm 10 mps 736 mmHg 67%
    16:00 +3°C° 0 mm 9 mps 738 mmHg 68%
    17:00 +4°C° 0 mm 8 mps 739 mmHg 69%
    18:00 +3°C° 0 mm 6 mps 740 mmHg 71%
    19:00 +3°C° 0 mm 6 mps 740 mmHg 71%
    20:00 +3°C° 0 mm 6 mps 741 mmHg 71%
    21:00 +3°C° 0 mm 5 mps 742 mmHg 71%
    22:00 +3°C° 0 mm 5 mps 742 mmHg 72%
    23:00 +3°C° 0 mm 4 mps 742 mmHg 73%

    Day after tomorrow, 24 November, Friday

    Time Temperature Precipitation Wind Pressure Humidity
    00:00 +3°C° 0 mm 4 mps 742 mmHg 74%
    01:00 +3°C° 0 mm 3 mps 742 mmHg 75%
    02:00 +2°C° 0 mm 3 mps 743 mmHg 77%
    03:00 +2°C° 0 mm 3 mps 743 mmHg 78%
    04:00 +2°C° 0 mm 3 mps 743 mmHg 79%
    05:00 +2°C° 0 mm 3 mps 743 mmHg 79%
    06:00 +2°C° 0 mm 3 mps 744 mmHg 79%
    07:00 +2°C° 0 mm 3 mps 744 mmHg 79%
    08:00 +2°C° 0 mm 3 mps 744 mmHg 79%
    09:00 +2°C° 0 mm 3 mps 745 mmHg 79%
    10:00 +3°C° 0 mm 3 mps 745 mmHg 75%
    11:00 +4°C° 0 mm 4 mps 745 mmHg 71%
    12:00 +4°C° 0 mm 4 mps 746 mmHg 67%
    13:00 +4°C° 0 mm 4 mps 746 mmHg 68%
    14:00 +4°C° 0 mm 4 mps 746 mmHg 70%
    15:00 +4°C° 0 mm 4 mps 746 mmHg 71%
    16:00 +3°C° 0 mm 4 mps 746 mmHg 74%
    17:00 +2°C° 0 mm 3 mps 746 mmHg 76%
    18:00 +1°C° 0 mm 3 mps 747 mmHg 79%
    19:00 +1°C° 0 mm 3 mps 747 mmHg 78%
    20:00 +1°C° 0 mm 3 mps 747 mmHg 76%
    21:00 0°C° 0 mm 3 mps 747 mmHg 75%
    22:00 0°C° 0 mm 3 mps 747 mmHg 75%
    23:00 -1°C° 0 mm 4 mps 746 mmHg 74%

    25 November, Saturday

    Time Temperature Precipitation Wind Pressure Humidity
    00:00 -1°C° 0 mm 4 mps 746 mmHg 74%
    01:00 -1°C° 0 mm 4 mps 746 mmHg 74%
    02:00 -1°C° 0 mm 4 mps 746 mmHg 75%
    03:00 -1°C° 0 mm 4 mps 746 mmHg 76%
    04:00 -1°C° 0 mm 4 mps 745 mmHg 76%
    05:00 -1°C° 0 mm 4 mps 745 mmHg 76%
    06:00 0°C° 0 mm 5 mps 745 mmHg 76%
    07:00 0°C° 0 mm 5 mps 745 mmHg 75%
    08:00 0°C° 0 mm 5 mps 745 mmHg 75%
    09:00 0°C° 0 mm 5 mps 746 mmHg 74%
    10:00 +1°C° 0 mm 5 mps 746 mmHg 69%
    11:00 +2°C° 0 mm 6 mps 746 mmHg 64%
    12:00 +3°C° 0 mm 6 mps 747 mmHg 59%
    13:00 +2°C° 0 mm 6 mps 747 mmHg 62%
    14:00 +2°C° 0 mm 6 mps 747 mmHg 65%
    15:00 +2°C° 0 mm 6 mps 747 mmHg 67%
    16:00 +2°C° 0.1 mm 7 mps 747 mmHg 69%
    17:00 +1°C° 0.1 mm 8 mps 747 mmHg 70%
    18:00 +1°C° 0.1 mm 9 mps 747 mmHg 71%
    19:00 +1°C° 0.2 mm 9 mps 747 mmHg 74%
    20:00 +1°C° 0.2 mm 9 mps 748 mmHg 76%
    21:00 +2°C° 0.2 mm 8 mps 748 mmHg 79%
    22:00 +1°C° 0 mm 8 mps 748 mmHg 78%
    23:00 +1°C° 0 mm 8 mps 749 mmHg 77%

    26 November, Sunday

    Time Temperature Precipitation Wind Pressure Humidity
    00:00 +1°C° 0 mm 8 mps 749 mmHg 77%
    01:00 +2°C° 0 mm 7 mps 749 mmHg 76%
    02:00 +2°C° 0 mm 7 mps 750 mmHg 76%
    03:00 0°C° 0 mm 7 mps 750 mmHg 75%
    04:00 0°C° 0 mm 7 mps 750 mmHg 75%
    05:00 0°C° 0 mm 7 mps 751 mmHg 74%
    06:00 -1°C° 0 mm 7 mps 751 mmHg 74%
    07:00 -1°C° 0 mm 7 mps 751 mmHg 73%
    08:00 -1°C° 0 mm 6 mps 752 mmHg 71%
    09:00 -1°C° 0 mm 6 mps 752 mmHg 70%
    10:00 0°C° 0 mm 7 mps 753 mmHg 67%
    11:00 +2°C° 0 mm 7 mps 753 mmHg 64%
    12:00 +2°C° 0 mm 8 mps 753 mmHg 61%
    13:00 +2°C° 0 mm 7 mps 753 mmHg 63%
    14:00 +2°C° 0 mm 7 mps 753 mmHg 65%
    15:00 +2°C° 0 mm 6 mps 753 mmHg 67%
    16:00 +1°C° 0 mm 6 mps 754 mmHg 69%
    17:00 +1°C° 0 mm 6 mps 754 mmHg 71%
    18:00 -1°C° 0 mm 6 mps 754 mmHg 73%
    19:00 -1°C° 0 mm 6 mps 754 mmHg 73%
    20:00 0°C° 0 mm 5 mps 754 mmHg 73%
    21:00 0°C° 0 mm 5 mps 754 mmHg 73%
    22:00 0°C° 0 mm 5 mps 754 mmHg 74%
    23:00 0°C° 0 mm 4 mps 754 mmHg 76%

    27 November, Monday

    Time Temperature Precipitation Wind Pressure Humidity
    00:00 -1°C° 0 mm 4 mps 754 mmHg 77%
    01:00 0°C° 0 mm 4 mps 754 mmHg 79%
    02:00 0°C° 0 mm 4 mps 753 mmHg 82%
    03:00 0°C° 0 mm 4 mps 752 mmHg 84%
    04:00 +1°C° 0.3 mm 4 mps 751 mmHg 85%
    05:00 +2°C° 0.3 mm 5 mps 750 mmHg 85%
    06:00 +2°C° 0.3 mm 6 mps 749 mmHg 86%
    07:00 +3°C° 0.5 mm 7 mps 748 mmHg 86%
    08:00 +3°C° 0.5 mm 7 mps 747 mmHg 86%
    09:00 +4°C° 0.5 mm 7 mps 746 mmHg 87%
    10:00 +4°C° 0.5 mm 6 mps 746 mmHg 86%
    11:00 +4°C° 0.5 mm 6 mps 745 mmHg 85%
    12:00 +5°C° 0.5 mm 5 mps 744 mmHg 84%
    13:00 +4°C° 0.4 mm 4 mps 744 mmHg 83%
    14:00 +3°C° 0.4 mm 3 mps 743 mmHg 82%
    15:00 +4°C° 0.4 mm 2 mps 743 mmHg 81%
    16:00 +4°C° 0 mm 2 mps 742 mmHg 82%
    17:00 +2°C° 0 mm 3 mps 742 mmHg 82%
    18:00 +2°C° 0 mm 3 mps 742 mmHg 83%
    19:00 +2°C° 0 mm 3 mps 741 mmHg 84%
    20:00 +1°C° 0 mm 3 mps 741 mmHg 85%
    21:00 +1°C° 0 mm 3 mps 740 mmHg 86%
    22:00 +1°C° 0 mm 3 mps 740 mmHg 86%
    23:00 +1°C° 0 mm 3 mps 740 mmHg 87%
    Show more